Location: Mason
(37.5237°N, 89.2543°W)
Time: 07:57:23
(UTC+00:00)

GEOS 3 Rocket - Pass Details

Date: 24 January 2021
Orbit: 772 x 847 km, 115.0° (Epoch: 09 March)

Event Time Altitude Azimuth Distance (km) Brightness Sun altitude
Rises 12:29:19 0° 157° (SSE) 3,346 7.5 -7.7°
Reaches altitude 10° 12:31:39 10° 162° (SSE) 2,426 6.6 -7.2°
Maximum altitude 12:36:50 55° 239° (WSW) 1,005 3.9 -6.2°
Drops below altitude 10° 12:42:06 10° 317° (NW) 2,470 5.6 -5.3°
Enters shadow 12:44:18 - 321° (NW) 3,334 6.3 -4.9°
